Regional Weather Roundup
Issued by NWS

Home | Current Version | Previous Version | Graphics & Text | Print | Product List | Glossary On
Versions: 1 2 3 4 5 6 7 8 9 10 11 12 13 14 15 16 17 18 19 20 21 22 23 24 25 26 27 28 29 30 31 32 33 34 35 36 37 38 39 40 41 42 43 44 45 46 47 48 49 50
589
ASUS43 KIND 212359
RWRIN

WEATHER ROUNDUP FOR INDIANA
NATIONAL WEATHER SERVICE INDIANAPOLIS IN
700 PM EST TUE FEB 21 2017

NOTE: "FAIR" INDICATES FEW OR NO CLOUDS BELOW 12,000 FEET WITH NO
SIGNIFICANT WEATHER AND/OR OBSTRUCTIONS TO VISIBILITY.

* - STATION DOES NOT REPORT WEATHER SUCH AS PRECIPITATION OR FOG.

+ - STATION NOT QUALITY CONTROLLED BY THE NATIONAL WEATHER SERVICE.
    USE DATA WITH CAUTION...ESPECIALLY DEWPOINT AND RELATIVE
    HUMIDITY OBSERVATIONS.

INZ001>003-010>013-019-020-220100-
NORTHWEST INDIANA

CITY           SKY/WX    TMP DP  RH WIND       PRES   REMARKS
GARY /AIRPORT/ MOCLDY    59  54  82 CALM      29.91S
KNOX *+        PTCLDY    55  34  44 CALM      29.92S
MICHIGAN CITY+ PTCLDY    54  52  94 CALM      29.92S
RENSSELAER +   CLOUDY    59  54  82 SE3       29.93R

$$

LMZ046-743>745-220100-
SOUTHERN LAKE MICHIGAN

STATION/POSITION TIME  TEMP    WIND        PRES    WAVE
                       AIR SEA DIR/SP/G            HT
                 (UTC) (F)     (DEG/KT/KT) (MB)    (FT)
BURNS HARBOR     2340   46      90/  7/  7 1013.5S
MICHIGAN CITY    2330   53      50/  5/  5   N/A

$$

INZ004-005-014>016-021>024-220100-
NORTH CENTRAL INDIANA

CITY           SKY/WX    TMP DP  RH WIND       PRES   REMARKS
ELKHART        CLEAR     54  48  82 CALM      29.92F
GOSHEN         PTCLDY    53  47  79 CALM      29.93S
6HR MIN TEMP:  53; 6HR MAX TEMP:  62; 6HR PCP: TRACE;

SOUTH BEND     PTCLDY    55  51  86 S6        29.93F
6HR MIN TEMP:  54; 6HR MAX TEMP:  62;

WARSAW +       CLOUDY    55  50  82 CALM      29.94R

$$

INZ006>009-017-018-025>027-220100-
NORTHEAST INDIANA

CITY           SKY/WX    TMP DP  RH WIND       PRES   REMARKS
ANGOLA *+      PTCLDY    52  52 100 CALM      29.94S
FORT WAYNE     MOCLDY    54  48  80 CALM      29.95R
6HR MIN TEMP:  54; 6HR MAX TEMP:  61; 6HR PCP: TRACE;

KENDALLVILLE + CLOUDY    54  49  83 S3        29.94S

$$

INZ028-029-035-036-043>045-051>053-220100-
WEST CENTRAL INDIANA

CITY           SKY/WX    TMP DP  RH WIND       PRES   REMARKS
LAFAYETTE      CLOUDY    57  51  80 CALM      29.93R
6HR MIN TEMP:  57; 6HR MAX TEMP:  61;

TERRE HAUTE    CLOUDY    56  51  84 CALM      29.94R
6HR MIN TEMP:  56; 6HR MAX TEMP:  64; 6HR PCP: TRACE;


$$

INZ030>032-037>040-046>048-054>057-064-065-220100-
CENTRAL INDIANA

CITY           SKY/WX    TMP DP  RH WIND       PRES   REMARKS
CP ATTERBURY + DRIZZLE   55  52  88 S3        29.96S
COLUMBUS       CLOUDY    54  54 100 S5        29.97S
FRANKFORT +    CLOUDY    58  53  81 CALM      29.95S
6HR MIN TEMP:  58; 6HR MAX TEMP:  64;

GREENWOOD *+   CLOUDY    59  54  83 S6        29.96R
6HR MIN TEMP:  59; 6HR MAX TEMP:  65;

INDIANAPOLIS   CLOUDY    60  50  69 S7        29.94R
6HR MIN TEMP:  60; 6HR MAX TEMP:  65;

-EAGLE CREEK   CLOUDY    62  50  64 S7        29.94R
6HR MIN TEMP:  62; 6HR MAX TEMP:  65;

KOKOMO +       CLOUDY    56  51  84 NE3       29.95R
6HR MIN TEMP:  56; 6HR MAX TEMP:  61;

MT COMFORT *+  CLOUDY    57  52  82 S8        29.96R
SHELBYVILLE    CLOUDY    59  52  77 S9        29.95R
6HR MIN TEMP:  59; 6HR MAX TEMP:  64; 6HR PCP: TRACE;


$$

INZ033-034-041-042-049-050-058-059-220100-
EAST CENTRAL INDIANA

CITY           SKY/WX    TMP DP  RH WIND       PRES   REMARKS
MUNCIE         CLOUDY    62  49  62 S9        29.95R
6HR MIN TEMP:  62; 6HR MAX TEMP:  66;


$$

INZ060-061-067>069-081>083-085>088-220100-
SOUTHWEST INDIANA

CITY           SKY/WX    TMP DP  RH WIND       PRES   REMARKS
EVANSVILLE     CLOUDY    63  55  75 CALM      29.93S
6HR MIN TEMP:  63; 6HR MAX TEMP:  65; 6HR PCP: TRACE;

HUNTINGBURG *+ CLOUDY    63  55  77 SE8       29.95R
6HR MIN TEMP:  63; 6HR MAX TEMP:  66; 6HR PCP: TRACE;


$$

INZ062-063-066-070>080-084-089>092-220100-
SOUTH CENTRAL AND SOUTHEAST INDIANA

CITY           SKY/WX    TMP DP  RH WIND       PRES   REMARKS
BLOOMINGTON    CLOUDY    56  53  90 SE5       29.95S
6HR MIN TEMP:  56; 6HR MAX TEMP:  64; 6HR PCP:  0.02;

MADISON *+     CLOUDY    55  54  94 CALM      30.00S
SEYMOUR +      RAIN      55  55 100 E6        29.96F

$$





USA.gov is the U.S. government's official web portal to all federal, state and local government web resources and services.